Skip Page Navigation
NASA JPL Caltech
NASA Logo - Jet Propulsion Laboratory + View the NASA Portal
+ Near-Earth Object (NEO) Program
Search JPL
JPL Home Earth Solar System Stars & Galaxies Technology
JPL Solar System Dynamics
BODIES ORBITS EPHEMERIDES TOOLS PHYSICAL DATA DISCOVERY FAQ SITE MAP
JPL Small-Body Database Browser
Search: [ help ]  
17597 Stefanzweig (1995 EK8)
Classification: Main-belt Asteroid          SPK-ID: 2017597
Ephemeris | Orbit Diagram | Orbital Elements | Physical Parameters | Discovery Circumstances | Close-Approach Data ]

[ show orbit diagram ]
Orbital Elements at Epoch 2457000.5 (2014-Dec-09.0) TDB
Reference: JPL 13 (heliocentric ecliptic J2000)
 Element Value Uncertainty (1-sigma)   Units 
e .07275154440069109 8.3587e-08  
a 2.420098559185233 1.9563e-08 AU
q 2.24403265140262 2.0311e-07 AU
i 2.929884077236054 6.1871e-06 deg
node 81.00635606517866 0.00014088 deg
peri 137.9709460979611 0.00014749 deg
M 44.27921667169749 4.3206e-05 deg
tp 2456831.360347076231
(2014-Jun-22.86034708)
0.00016558 JED
period 1375.143456218293
3.76
1.6674e-05
4.565e-08
d
yr
n .261790868706903 3.1744e-09 deg/d
Q 2.596164466967845 2.0987e-08 AU
  Orbit Determination Parameters
   # obs. used (total)      571  
   data-arc span      11036 days (30.21 yr)  
   first obs. used      1984-03-29  
   last obs. used      2014-06-16  
   planetary ephem.      DE431  
   SB-pert. ephem.      SB431-BIG16  
   condition code      0  
   fit RMS      .54915  
   data source      ORB  
   producer      Otto Matic  
   solution date      2014-Oct-09 14:35:30  

Additional Information
 Earth MOID = 1.23837 AU 
 T_jup = 3.509 
[ show covariance matrix ]

Ephemeris | Orbit Diagram | Orbital Elements | Physical Parameters | Discovery Circumstances | Close-Approach Data ]

Physical Parameter Table
Parameter Symbol Value Units Sigma Reference Notes
absolute magnitude H 15.2 mag n/a MPO302173  

17597 Stefanzweig           Discovered 1995 Mar. 4 by F. Borngen at Tautenburg.
Austrian Stefan Zweig (1881-1941), biographer, essayist and writer, communicated with world figures and had great confidence in the good strengths of humanity. His books were translated into more than 20 languages. Having emigrated in 1934, he suffered from being abroad and eventually committed suicide.
NOTE: some special characters may not display properly (any characters within {} are an attempt to place the proper accent above a character)
Reference: 20010509/MPCPages.arcLast Updated: 2009-05-11

[ show close-approach data ]
Alternate Designations
 1995 EK8 = 1999 JQ1 
Ephemeris | Orbit Diagram | Orbital Elements | Physical Parameters | Discovery Circumstances | Close-Approach Data ]
ABOUT SSD CREDITS/AWARDS PRIVACY/COPYRIGHT GLOSSARY LINKS
FirstGov 2014-Oct-31 04:53 UT
(server date/time)  
NASA Home Page
Site Manager:   Donald K. Yeomans
Webmaster  Alan B. Chamberlin